星链-4695 (STARLINK-4695 )

导读

STARLINK-4695是美国太空探索技术公司(SpaceX)星链(Starlink)星座中的一颗互联网通信卫星,由猎鹰9号火箭于2022年9月5日发射,隶属于星链Group 4-16批次。该卫星重约297公斤,运行在约548公里高度的近地轨道,旨在为全球提供高速太空互联网接入服务,是星链庞大星座组网的组成单元之一,助力实现全球覆盖的卫星互联网布局。

基本信息
目录编号:
53718
目录名称:
STARLINK-4695
国际标识:
2022-107U
轨道中心:
EARTH
卫星名称:
星链-4695
卫星全名:
星链-4695 (STARLINK-4695 )
卫星状态:
在轨 (已飞行1460 天)
发射日期:
2022-09-05 UTC
国别 :
美国 (US)
星等 :
--
轨道信息
数据来源 国际轨道数据
星历时间: 2026-09-04T03:21:13+0800
15小时前
查看轨道信息
半长轴: 6848.867km
偏心率: 0.0001229
轨道倾角: 53.161°
近地点辐角 94.608°
升交点赤经 165.508°
平近点角 265.507°
近地点: 469.888km
远地点: 471.572km
周期: 94.013分钟
每日圈数: 15.317034
详细信息
固有亮度:
5
最大亮度:
2.5
卫星平台:
Starlink v1.5
覆盖范围:
全球
运营商:
太空探索技术公司
运营商所在国:
美国
制造商(研发单位):
太空探索技术公司
制造商所在国:
美国
使用方式:
暂无
卫星简介
星链(Starlink)计划是由太空探索技术公司(SpaceX)提出的一个巨型低轨卫星互联网星座项目,计划在2019年至2024年间在太空搭建由约1.2万颗卫星组成的“星链”网络,其中1584颗将部署在地球上空550千米处的近地轨道,并从2020年开始工作。该卫星仍在工作。
2D轨道图
3D轨道图
轨道高度分析图
轨道倾角分析图
轨道综合分析图
查看轨道综合分析图
交会数据列表
事件ID 空间交会对象 最接近时刻(TCA) 交会距离 交会风险概率(CRP) 交会风险指数(CRI) 操作
CDM_260905-044505-371806-580721
2026-09-05T
04:45:38+0000
0.682 km
远距离
6.325924E-5 中风险 0.71
CDM_260906-050605-371806-388021
2026-09-06T
05:06:36+0000
0.788 km
远距离
1.95766E-5 中风险 0.61
CDM_260905-225604-464105-371822
2026-09-05T
22:56:20+0000
1.858 km
极远距离
3.469957E-6 低风险 0.46
CDM_260905-215704-623205-371821
2026-09-05T
21:57:00+0000
2.586 km
极远距离
1.579251E-6 低风险 0.39
CDM_260906-090405-371805-719621
2026-09-06T
09:04:41+0000
2.744 km
极远距离
1.498452E-6 低风险 0.39
CDM_260904-174105-371806-930021
2026-09-04T
17:41:59+0000
2.736 km
极远距离
1.38053E-6 低风险 0.38
CDM_260904-205905-371806-552121
2026-09-04T
20:59:42+0000
2.901 km
极远距离
1.376728E-6 低风险 0.38
CDM_260905-201305-371806-838021
2026-09-05T
20:13:31+0000
2.798 km
极远距离
1.376182E-6 低风险 0.38
CDM_260905-035805-371806-580721
2026-09-05T
03:58:38+0000
2.463 km
极远距离
1.287931E-6 低风险 0.37
CDM_260903-123805-371805-632421
2026-09-03T
12:38:13+0000
2.916 km
极远距离
1.120304E-6 低风险 0.36